Regional Weather Roundup
Issued by NWS Northern Indiana

Home | Current Version | Previous Version | Text Only | Print | Product List | Glossary Off
Versions: 1 2 3 4 5 6 7 8 9 10 11 12 13 14 15 16 17 18 19 20 21 22 23 24 25 26 27 28 29 30 31 32 33 34 35 36 37 38 39 40 41 42 43 44 45 46 47 48 49 50

000
ASUS43 KIWX 260600
RWRIWX

KIWX WEATHER ROUNDUP
NATIONAL WEATHER SERVICE NORTHERN INDIANA
200 AM EDT SUN MAR 26 2017

NOTE: "FAIR" INDICATES FEW OR NO CLOUDS BELOW 12,000 FEET WITH NO
SIGNIFICANT WEATHER AND/OR OBSTRUCTIONS TO VISIBILITY.

* THESE STATIONS ARE NOT UNDER NWS QUALITY CONTROL. THEY ALSO MAY NOT
  REPORT WEATHER SUCH AS PRECIPITATION OR FOG.

INZ001>027-260700-
NORTHERN INDIANA

CITY           SKY/WX    TMP DP  RH WIND       PRES   REMARKS
KNOX*          CLOUDY    46  37  71 E10       29.95F
SOUTH BEND     LGT RAIN  45  50 100 E10       29.98F
6HR MIN TEMP:  45; 6HR MAX TEMP:  52; 6HR PCP:  0.08;

GOSHEN         CLOUDY    44  39  82 E10       30.01F
6HR MIN TEMP:  44; 6HR MAX TEMP:  50; 6HR PCP:  0.19;

MONTICELLO*    CLOUDY    52  50  95 E9        29.94S
6HR MIN TEMP:  52; 6HR MAX TEMP:  62; 6HR PCP:  0.12;

ANGOLA*        MOCLDY    39  39 100 E14       30.05F
FORT WAYNE     CLOUDY    43  39  86 E14       30.03F
6HR MIN TEMP:  43; 6HR MAX TEMP:  49; 6HR PCP: TRACE;

PERU/GRISSOM   CLOUDY    49  49 100 E12       29.95S
6HR MIN TEMP:  49; 6HR MAX TEMP:  59; 6HR PCP:  0.59;


$$
INZ028>050-260700-
CENTRAL INDIANA

CITY           SKY/WX    TMP DP  RH WIND       PRES   REMARKS
LAFAYETTE      CLOUDY    59  56  89 SE10      29.92S
6HR MIN TEMP:  59; 6HR MAX TEMP:  64; 6HR PCP: TRACE;

KOKOMO*        CLOUDY    50  48  93 E12       29.98F
6HR MIN TEMP:  50; 6HR MAX TEMP:  63; 6HR PCP:  0.35;

MUNCIE*        CLOUDY    54  50  86 E8        29.98F
6HR MIN TEMP:  54; 6HR MAX TEMP:  71; 6HR PCP:  0.03;

INDIANAPOLIS   LGT RAIN  58  56  93 SE7       29.95F
6HR MIN TEMP:  58; 6HR MAX TEMP:  60; 6HR PCP:  0.21;


$$
MIZ043>046-050>051-056>058-064>065-071>073-077>080-260700-
SOUTHWEST LOWER MICHIGAN

CITY           SKY/WX    TMP DP  RH WIND       PRES   REMARKS
BATTLE CREEK   LGT RAIN  43  41  93 E8        30.06F
6HR MIN TEMP:  43; 6HR MAX TEMP:  46; 6HR PCP:  0.09;

BENTON HARBOR  CLOUDY    48  45  89 E12       29.98F
6HR MIN TEMP:  48; 6HR MAX TEMP:  50; 6HR PCP:  0.02;

COLDWATER*     CLOUDY    43  41  91 E8        30.06F
6HR MIN TEMP:  43; 6HR MAX TEMP:  47;

HILLSDALE*     CLOUDY    37  36  93 E7        30.06R
HOLLAND        LGT RAIN  44  41  89 E14       30.03S
6HR MIN TEMP:  43; 6HR MAX TEMP:  45; 6HR PCP:  0.30;

GRAND RAPIDS   LGT RAIN  41  50 100 E15       30.06F
6HR MIN TEMP:  41; 6HR MAX TEMP:  41; 6HR PCP:  0.38;

KALAMAZOO      CLOUDY    44  41  89 E8        30.05F
6HR MIN TEMP:  44; 6HR MAX TEMP:  47; 6HR PCP:  0.35;

STURGIS*       CLOUDY    42  40  93 E8        30.03F
6HR MIN TEMP:  42; 6HR MAX TEMP:  47; 6HR PCP:  0.03;

THREE RIVERS*  CLOUDY    44  41  91 E7        30.04F
6HR MIN TEMP:  44; 6HR MAX TEMP:  48;


$$
OHZ001>008-015>018-024>025-260700-
NORTHWEST OHIO

CITY           SKY/WX    TMP DP  RH WIND       PRES   REMARKS
DEFIANCE       CLOUDY    39  36  89 VRB5      30.09R
6HR MIN TEMP:  39; 6HR MAX TEMP:  43;

FINDLAY        CLOUDY    43  37  79 E9        30.02F
6HR MIN TEMP:  42; 6HR MAX TEMP:  48;

TOLEDO EXPRESS CLOUDY    38  36  92 E14       30.07F
6HR MIN TEMP:  37; 6HR MAX TEMP:  38;

TOLEDO METCALF CLOUDY    39  37  92 NE9       30.09F
6HR MIN TEMP:  38; 6HR MAX TEMP:  39;

LIMA           PTCLDY    47  44  90 E9        30.01F
6HR MIN TEMP:  47; 6HR MAX TEMP:  57;


$$
AND FOR LAKE MICHIGAN COASTAL AND OPEN LAKE BUOY OBSERVATIONS

STATION/POSITION TEMP    WIND        PRES    VSBY  WAVE
                 AIR SEA DIR/SP/G                  HT/PER
                 (F)     (DEG/KT/KT) (MB)    (MI)  (FT/S)
CALUMET HARBOR    45      80/  6/  8 1013.1F
MICHIGAN CITY     49     110/ 10/ 12   N/A
BURNS HARBOR      51     120/ 14/ 20 1013.9F

$$
&&




USA.gov is the U.S. government's official web portal to all federal, state and local government web resources and services.